Temp
65 63 60 57 45 40 34 40 44 48 49 56 59 58 59 61 62 54 68 72 74 75 77 78 79 79 79 79 79 78 78 78 79 79 79 79 79 79 79 79 80 80 80 79 79 79 78 79 78
62 65 57 48 38 33 36 41 47 50 55 58 58 59 57 61 65 67 67 73 75 76 77 77 78 78 79 78 79 78 78 78 78 79 79 79 79 79 79 79 79 79 79 78 78 78 77 77 77
63 64 51 43 36 34 38 44 45 54 57 58 58 58 58 60 66 68 71 73 76 75 76 77 78 78 78 78 78 78 78 78 78 78 79 79 79 79 79 79 79 78 77 77 77 77 77 76 77
58 55 50 39 36 40 42 46 47 52 56 57 56 54 61 65 63 67 70 74 73 73 74 76 77 78 78 78 78 78 78 78 78 78 78 78 79 79 79 77 77 76 76 76 76 76 76 76 76
54 48 38 34 37 40 44 48 49 49 50 53 54 54 57 66 69 71 70 72 72 73 73 75 77 78 78 78 78 77 78 78 78 78 78 78 78 78 77 76 75 75 76 76 76 76 76 75 76
45 45 34 32 37 42 44 48 49 48 49 54 53 53 55 62 66 67 69 69 71 72 73 75 75 76 77 77 77 77 77 77 77 78 78 78 77 77 76 75 75 75 76 76 76 76 75 75 75
42 38 34 34 37 41 45 50 45 46 45 48 51 50 55 60 63 65 66 68 68 70 72 73 75 75 74 75 76 76 77 77 77 77 76 76 75 75 75 75 75 75 75 75 75 75 75 75 75
43 41 34 35 36 38 46 49 51 49 46 56 53 48 47 56 62 62 63 64 68 68 70 71 72 73 74 74 73 74 75 74 75 75 73 72 71 73 74 73 74 75 74 74 74 74 75 74 74
48 35 30 35 37 41 47 45 51 53 49 50 54 50 53 60 62 60 59 60 62 67 67 68 70 72 72 73 72 71 72 72 72 72 70 69 71 71 70 70 71 73 73 73 73 74 73 71 70
41 32 35 43 43 41 46 46 48 47 47 46 51 56 57 58 59 56 56 55 59 61 64 67 67 69 71 74 73 71 72 71 72 71 70 71 72 70 70 68 69 71 71 72 73 73 71 67 63
40 34 41 45 47 48 46 46 49 45 43 47 48 52 55 55 55 57 56 56 57 60 62 64 65 68 69 71 71 71 72 71 69 69 70 71 71 68 68 67 67 65 65 65 67 66 63 62 62
36 42 43 46 49 47 44 48 45 46 48 52 52 53 53 53 54 55 55 55 57 58 61 63 64 66 67 69 70 71 71 71 69 69 70 71 70 69 66 65 64 63 62 62 62 60 61 62 62
37 40 44 45 46 45 47 44 44 45 50 52 53 53 52 52 53 53 56 57 57 57 60 61 62 63 68 67 69 71 71 71 71 70 71 71 71 69 68 65 64 62 62 61 60 59 61 61 61
40 41 41 43 44 44 43 44 44 45 49 50 52 52 54 54 54 52 53 55 56 58 58 60 61 62 65 68 67 70 70 73 70 70 71 70 70 70 70 67 63 62 62 61 60 60 61 61 62
42 35 38 40 42 41 44 38 39 48 49 47 48 51 53 54 55 53 53 54 56 57 59 59 60 62 63 64 67 68 70 71 69 70 72 70 70 71 70 67 63 63 62 61 60 61 61 61 62
34 31 26 37 39 42 41 29 41 47 46 46 48 48 50 52 54 56 54 54 55 56 57 59 63 62 61 63 64 67 69 70 69 69 71 71 70 69 67 65 65 64 63 62 61 60 60 60 61
27 16 23 30 39 39 37 31 41 46 45 44 45 45 47 49 52 55 55 53 54 56 57 58 59 60 61 62 63 64 68 68 68 68 69 70 70 69 68 67 66 65 64 63 63 59 60 59 60
16 17 24 24 34 36 33 33 40 44 44 44 45 47 48 50 53 56 56 53 54 55 56 58 59 60 59 61 61 63 65 65 67 67 67 68 69 70 69 67 66 65 64 62 60 60 60 61 61
28 24 23 29 37 33 31 33 38 43 43 42 43 45 47 49 54 56 56 55 53 54 55 57 58 59 59 59 61 61 62 63 65 67 67 68 69 68 69 67 66 66 65 64 63 60 61 59 60
30 26 25 31 36 34 33 33 39 42 42 43 43 44 45 48 50 53 54 53 50 53 54 56 58 59 60 61 61 60 61 63 65 67 67 69 70 69 68 68 67 66 65 62 63 61 59 60 61
29 25 27 27 34 35 31 28 32 39 41 43 44 45 46 46 48 50 52 52 50 50 52 55 58 59 60 62 61 60 62 61 62 64 65 66 69 69 68 68 69 67 67 64 64 63 63 59 59
24 34 33 30 28 19 33 20 28 33 37 40 44 44 43 44 46 50 51 51 51 49 52 56 57 59 60 61 60 60 60 60 62 65 66 66 67 67 68 68 69 68 67 65 65 66 65 62 61
27 35 34 33 29 28 25 25 25 32 34 39 40 44 44 45 44 46 50 52 53 52 51 55 57 58 60 60 61 60 60 61 64 64 65 66 66 67 66 65 65 66 66 65 64 63 63 65 62
40 36 33 32 30 20 23 23 20 27 35 39 40 41 44 44 45 46 51 52 52 50 53 55 56 57 59 59 60 60 60 60 61 62 63 64 65 66 67 66 65 65 66 64 64 65 64 63 62
34 30 14 12 9 14 19 25 25 35 40 40 38 40 43 44 44 45 46 47 49 50 52 54 56 56 58 58 60 61 61 61 61 63 63 64 64 65 65 65 64 64 66 65 65 64 64 62 63
32 29 17 11 9 16 26 17 26 40 44 44 43 42 43 43 45 45 46 47 49 51 52 54 56 57 57 58 58 61 62 63 62 64 65 65 65 65 65 64 64 65 66 66 65 64 63 63 62
32 30 35 28 22 22 18 27 37 42 40 40 39 40 40 42 47 46 47 47 49 51 53 54 56 57 58 58 58 60 60 60 62 64 65 65 67 66 64 64 64 66 65 65 64 64 62 63 62
36 38 29 29 18 13 19 20 27 32 33 36 36 36 39 42 45 46 46 47 49 52 54 54 57 57 59 59 59 60 61 59 59 62 63 63 63 64 63 63 64 64 64 64 63 62 62 62 61
35 33 34 34 30 22 21 21 35 33 34 33 35 38 40 46 45 45 46 49 53 55 54 56 57 57 58 60 59 59 59 59 59 61 62 62 62 62 62 63 63 63 63 63 63 61 60 61 60
37 34 33 24 24 27 26 26 41 38 38 35 36 37 45 49 49 48 50 52 54 53 54 56 56 58 60 59 59 58 58 59 59 61 61 61 62 63 63 63 63 62 62 62 62 61 61 61 60
MSLP
1014.39 1014.26 1014.37 1014.96 1016.84 1017.89 1017.88 1017.01 1015.83 1014.85 1014.15 1013.18 1012.61 1012.27 1011.87 1011.36 1011.14 1011.25 1009.77 1009.83 1009.79 1010.01 1010.19 1010.69 1011.18 1011.67 1012.06 1012.29 1012.58 1012.85 1013.20 1013.58 1013.84 1014.22 1014.47 1014.78 1015.30 1015.67 1015.70 1015.99 1016.33 1016.46 1016.66 1016.88 1017.10 1017.28 1017.59 1017.83 1018.04
1014.54 1014.47 1015.05 1016.39 1017.78 1018.35 1017.57 1016.39 1015.59 1014.88 1014.18 1013.21 1012.42 1011.98 1011.79 1011.13 1010.60 1010.18 1010.04 1009.85 1009.94 1010.10 1010.45 1010.82 1011.26 1011.72 1012.20 1012.62 1012.96 1013.17 1013.27 1013.69 1014.01 1014.31 1014.63 1014.86 1015.21 1015.67 1016.04 1016.12 1016.48 1016.77 1017.03 1017.22 1017.41 1017.78 1018.04 1018.29 1018.48
1014.48 1014.82 1016.30 1017.43 1018.20 1017.83 1017.01 1015.88 1015.48 1014.80 1014.02 1013.35 1012.84 1012.28 1012.04 1012.19 1011.31 1010.85 1009.92 1009.83 1010.18 1010.39 1010.49 1010.80 1011.30 1011.85 1012.29 1012.75 1013.12 1013.50 1013.54 1013.80 1014.17 1014.46 1014.78 1015.07 1015.35 1015.67 1016.19 1016.37 1016.62 1017.05 1017.36 1017.52 1017.80 1018.21 1018.47 1018.57 1018.75
1015.02 1015.85 1017.62 1018.10 1018.04 1017.29 1016.56 1015.81 1015.36 1014.84 1014.21 1013.80 1013.50 1013.04 1012.60 1012.68 1012.24 1011.53 1010.56 1010.23 1010.41 1010.84 1010.88 1011.05 1011.25 1011.69 1012.20 1012.74 1013.10 1013.60 1013.80 1013.95 1014.37 1014.65 1014.89 1015.30 1015.57 1015.82 1016.21 1016.73 1016.94 1017.27 1017.71 1018.02 1018.34 1018.58 1018.77 1018.79 1018.91
1015.77 1017.16 1018.41 1018.92 1018.18 1017.18 1016.44 1015.95 1015.41 1015.06 1014.78 1014.40 1013.98 1013.64 1013.17 1012.83 1012.50 1011.37 1011.40 1011.14 1010.87 1011.07 1011.17 1011.43 1011.59 1011.82 1012.17 1012.58 1013.10 1013.63 1013.96 1014.20 1014.42 1014.76 1015.12 1015.43 1015.81 1016.09 1016.53 1016.89 1017.19 1017.46 1017.90 1018.33 1018.69 1018.95 1019.08 1019.17 1019.29
1016.96 1017.97 1019.21 1019.24 1018.18 1017.17 1016.48 1015.80 1015.32 1015.16 1015.11 1014.70 1014.44 1014.10 1013.68 1013.63 1012.57 1012.29 1011.72 1011.53 1011.59 1011.50 1011.31 1011.57 1011.75 1011.96 1012.29 1012.72 1013.11 1013.51 1014.00 1014.28 1014.60 1014.82 1015.17 1015.58 1015.95 1016.37 1016.78 1017.23 1017.46 1017.60 1017.99 1018.52 1018.90 1019.23 1019.31 1019.42 1019.55
1017.35 1018.49 1019.17 1019.03 1018.17 1017.32 1016.43 1015.72 1015.59 1015.50 1015.41 1015.03 1014.79 1014.58 1013.99 1013.84 1013.87 1013.16 1012.54 1012.07 1011.78 1011.51 1011.65 1011.81 1011.80 1011.93 1012.38 1012.66 1013.10 1013.45 1013.77 1014.25 1014.58 1015.02 1015.29 1015.71 1016.20 1016.61 1017.06 1017.44 1017.72 1017.90 1018.01 1018.54 1019.03 1019.32 1019.49 1019.68 1019.85
1017.78 1018.44 1019.26 1019.02 1018.47 1017.45 1016.55 1016.18 1015.89 1015.73 1015.58 1015.22 1014.79 1014.72 1014.87 1014.84 1014.22 1013.60 1013.01 1012.69 1012.31 1012.04 1011.91 1012.01 1012.02 1012.20 1012.38 1012.80 1013.20 1013.47 1013.72 1014.15 1014.54 1015.02 1015.55 1015.98 1016.32 1016.81 1017.28 1017.67 1017.92 1018.21 1018.30 1018.51 1019.03 1019.40 1019.62 1019.90 1020.16
1017.93 1018.93 1019.15 1018.72 1018.38 1017.27 1016.76 1016.72 1016.39 1016.06 1015.94 1015.88 1015.42 1015.14 1015.21 1014.89 1014.42 1014.26 1013.96 1013.45 1013.12 1012.81 1012.68 1012.29 1012.20 1012.14 1012.31 1012.73 1013.19 1013.59 1013.90 1014.30 1014.73 1015.06 1015.52 1016.31 1016.63 1017.01 1017.52 1017.80 1018.15 1018.37 1018.67 1018.76 1019.04 1019.50 1019.79 1020.10 1020.40
1018.39 1019.12 1018.69 1018.03 1017.64 1017.33 1017.06 1017.03 1016.92 1016.65 1016.20 1015.96 1015.75 1015.31 1015.25 1015.18 1015.15 1015.03 1014.99 1014.60 1014.10 1013.64 1013.21 1012.93 1012.69 1012.34 1012.31 1012.63 1013.01 1013.47 1013.93 1014.46 1014.76 1015.34 1015.49 1016.17 1016.70 1017.05 1017.53 1017.99 1018.29 1018.58 1018.82 1019.03 1019.25 1019.60 1019.96 1020.31 1020.75
1018.59 1018.90 1018.53 1017.97 1017.49 1017.35 1017.17 1016.91 1016.84 1016.65 1016.07 1015.79 1015.69 1015.54 1015.41 1015.47 1015.36 1015.26 1014.98 1014.96 1014.62 1014.09 1013.64 1013.18 1013.09 1012.60 1012.36 1012.38 1012.82 1013.34 1013.90 1014.44 1014.92 1015.33 1015.75 1015.92 1016.51 1017.28 1017.62 1018.19 1018.52 1018.87 1019.07 1019.24 1019.50 1019.78 1020.20 1020.58 1020.96
1018.81 1018.72 1018.72 1018.27 1017.79 1017.63 1017.40 1017.06 1016.62 1016.39 1015.80 1015.59 1015.57 1015.35 1015.27 1015.40 1015.37 1015.18 1014.97 1014.77 1014.60 1014.17 1013.82 1013.49 1013.04 1012.97 1012.56 1012.50 1012.87 1013.18 1013.79 1014.26 1014.78 1015.18 1015.67 1015.92 1016.35 1016.89 1017.65 1018.08 1018.60 1018.89 1019.28 1019.51 1019.69 1020.03 1020.30 1020.73 1020.98
1019.18 1019.00 1018.96 1018.66 1018.18 1017.92 1017.55 1017.18 1016.82 1015.69 1015.72 1015.43 1015.07 1015.02 1014.74 1015.02 1014.95 1014.88 1014.66 1014.31 1014.12 1014.10 1013.76 1013.50 1013.13 1012.90 1012.61 1012.83 1012.46 1013.02 1013.50 1013.97 1014.42 1014.96 1015.38 1015.85 1016.12 1016.55 1017.09 1018.05 1018.47 1018.79 1019.25 1019.57 1019.82 1020.13 1020.46 1020.78 1020.99
1019.68 1019.61 1019.29 1018.75 1018.29 1017.97 1017.64 1016.91 1016.87 1015.16 1015.30 1015.15 1014.76 1014.26 1014.32 1013.97 1014.17 1014.17 1014.25 1014.26 1014.01 1013.71 1013.47 1013.09 1013.26 1012.81 1012.62 1012.60 1012.42 1012.64 1013.09 1013.55 1014.07 1014.54 1015.14 1015.66 1015.85 1016.25 1016.65 1017.44 1018.29 1018.67 1018.95 1019.44 1019.72 1019.96 1020.40 1020.72 1020.96
1020.04 1020.16 1019.57 1018.76 1018.04 1017.78 1017.40 1016.19 1015.42 1015.16 1014.94 1014.63 1014.38 1013.92 1013.57 1013.30 1013.15 1013.34 1013.30 1013.42 1013.36 1013.17 1012.99 1012.88 1012.82 1012.85 1012.63 1012.40 1012.54 1012.28 1012.48 1013.11 1013.79 1014.06 1014.67 1015.25 1015.83 1015.87 1016.53 1017.01 1017.80 1018.29 1018.68 1019.29 1019.79 1020.11 1020.42 1020.73 1020.86
1021.04 1021.06 1020.65 1018.89 1018.26 1017.74 1017.85 1015.21 1015.29 1014.91 1014.80 1014.35 1014.06 1013.62 1013.06 1012.57 1012.24 1012.35 1012.51 1012.53 1012.55 1012.59 1012.52 1012.43 1012.46 1012.62 1012.51 1012.21 1012.32 1012.03 1012.11 1012.74 1013.35 1013.74 1014.15 1014.86 1015.48 1015.91 1016.50 1016.96 1017.30 1017.93 1018.50 1018.96 1019.55 1020.12 1020.49 1020.73 1020.93
1022.49 1022.37 1021.50 1020.00 1018.58 1018.27 1017.91 1015.61 1015.17 1014.65 1014.51 1014.04 1013.58 1012.96 1012.39 1011.87 1011.47 1011.39 1011.54 1011.64 1011.81 1011.86 1011.91 1011.91 1012.03 1012.18 1012.24 1011.96 1012.10 1012.13 1012.01 1012.62 1012.85 1013.42 1013.80 1014.36 1014.99 1015.60 1016.08 1016.62 1016.72 1017.38 1018.05 1018.65 1019.24 1019.92 1020.27 1020.68 1020.96
1023.19 1023.00 1021.82 1020.74 1019.10 1018.51 1017.80 1015.29 1014.75 1013.93 1013.96 1013.15 1012.81 1012.32 1011.76 1011.10 1010.37 1010.29 1010.27 1010.56 1010.85 1011.05 1011.05 1011.24 1011.33 1011.54 1011.80 1011.67 1011.85 1012.07 1012.34 1012.63 1012.43 1012.65 1013.72 1014.07 1014.49 1015.10 1015.50 1016.32 1016.73 1016.98 1017.73 1018.47 1019.01 1019.49 1020.15 1020.39 1020.74
1022.61 1022.67 1021.85 1020.19 1019.30 1018.75 1017.16 1015.12 1013.53 1012.62 1012.80 1012.09 1011.80 1011.50 1011.02 1010.31 1009.40 1009.82 1009.67 1009.66 1009.92 1010.16 1010.35 1010.42 1010.69 1010.79 1011.20 1011.54 1011.91 1012.11 1012.02 1012.13 1012.38 1012.43 1013.08 1013.66 1014.08 1014.43 1014.86 1015.61 1016.50 1016.81 1017.17 1017.79 1018.61 1019.23 1019.83 1020.35 1020.51
1022.14 1022.00 1020.85 1019.56 1018.53 1018.39 1016.69 1014.07 1013.27 1011.90 1011.48 1011.36 1010.98 1010.56 1010.08 1009.47 1008.99 1008.66 1008.70 1008.93 1009.14 1009.25 1009.39 1009.55 1009.68 1010.08 1010.26 1010.61 1011.01 1011.30 1011.61 1011.83 1011.68 1012.05 1012.43 1012.93 1013.43 1014.03 1014.56 1014.85 1015.80 1016.34 1016.87 1017.50 1018.18 1018.66 1019.47 1019.93 1020.15
1021.06 1020.99 1020.17 1019.83 1018.59 1017.72 1016.67 1014.20 1012.69 1011.31 1011.07 1010.98 1010.96 1010.72 1009.98 1009.22 1008.42 1008.08 1008.02 1007.88 1008.28 1008.58 1008.53 1008.62 1008.82 1009.04 1009.49 1009.84 1010.43 1010.82 1011.21 1011.46 1011.86 1012.25 1012.08 1012.55 1012.80 1013.45 1013.91 1014.43 1014.97 1015.80 1016.64 1016.88 1017.54 1018.11 1018.46 1019.18 1019.91
1020.10 1019.42 1019.47 1019.47 1019.28 1018.33 1017.06 1015.82 1013.36 1012.27 1011.63 1011.31 1011.13 1010.27 1009.71 1008.93 1008.06 1007.26 1007.11 1007.06 1007.06 1007.28 1007.60 1007.60 1007.67 1007.92 1008.47 1008.89 1009.42 1009.80 1010.09 1010.56 1010.78 1010.88 1011.15 1011.75 1012.19 1012.83 1013.42 1013.94 1014.37 1014.96 1016.40 1016.56 1017.03 1017.52 1017.84 1018.29 1019.28
1018.98 1018.81 1019.04 1019.16 1018.90 1018.39 1017.15 1017.05 1013.32 1012.24 1011.10 1010.20 1009.83 1009.17 1008.47 1008.03 1007.50 1006.80 1006.22 1005.88 1005.88 1005.93 1006.32 1006.47 1006.92 1006.86 1007.19 1007.83 1008.20 1008.86 1009.32 1009.57 1009.59 1010.11 1010.60 1011.15 1011.50 1011.85 1012.58 1013.20 1013.99 1014.80 1015.64 1015.97 1016.58 1017.15 1017.40 1017.74 1018.57
1018.08 1018.40 1018.39 1018.48 1018.62 1018.51 1016.63 1016.55 1013.90 1012.81 1011.89 1010.80 1009.95 1009.11 1008.32 1007.07 1006.51 1005.76 1005.27 1005.28 1005.36 1005.32 1005.42 1005.64 1005.94 1006.17 1006.63 1006.82 1007.55 1007.88 1008.51 1008.99 1009.34 1009.60 1010.25 1010.42 1011.04 1011.22 1012.00 1012.94 1013.78 1014.55 1014.93 1015.37 1016.04 1016.59 1016.84 1017.29 1017.87
1018.02 1018.25 1018.60 1018.91 1018.89 1017.40 1016.20 1016.18 1013.47 1011.96 1011.13 1010.74 1009.77 1008.77 1007.84 1006.74 1006.04 1005.36 1004.82 1004.73 1004.60 1004.55 1004.72 1004.98 1005.15 1005.46 1005.73 1006.12 1006.62 1006.98 1007.54 1008.11 1008.35 1008.62 1009.04 1009.41 1009.78 1010.01 1011.05 1012.23 1013.07 1013.95 1014.25 1014.62 1015.54 1016.06 1016.42 1016.94 1017.40
1017.36 1017.79 1018.19 1018.40 1018.09 1017.15 1015.76 1014.65 1012.63 1011.54 1010.92 1010.28 1009.67 1008.82 1007.67 1006.58 1005.63 1005.01 1004.48 1004.27 1003.93 1003.59 1003.76 1004.11 1004.38 1004.65 1004.96 1005.39 1005.85 1006.10 1006.61 1007.27 1007.60 1007.62 1007.75 1008.10 1008.55 1008.74 1010.16 1011.48 1012.44 1012.99 1013.41 1014.06 1014.85 1015.40 1015.89 1016.39 1017.03
1016.74 1016.82 1016.81 1016.99 1016.95 1016.43 1015.13 1013.45 1011.85 1011.24 1010.70 1010.08 1009.45 1008.35 1007.21 1006.16 1005.15 1004.29 1003.80 1003.56 1003.14 1002.85 1002.85 1003.16 1003.41 1003.62 1004.03 1004.60 1005.12 1005.56 1006.04 1006.67 1006.73 1006.74 1007.00 1007.27 1007.79 1008.31 1009.61 1010.49 1011.57 1012.48 1012.79 1013.43 1014.20 1014.87 1015.38 1015.90 1016.45
1016.09 1016.11 1016.10 1016.17 1016.49 1015.93 1014.68 1014.35 1013.45 1011.83 1010.95 1010.37 1009.31 1008.30 1006.50 1004.98 1004.37 1004.08 1003.53 1003.26 1002.99 1002.91 1002.55 1002.65 1002.67 1002.89 1003.34 1003.83 1004.41 1004.62 1005.07 1006.01 1006.24 1006.10 1006.22 1006.99 1007.53 1007.98 1009.19 1010.12 1011.18 1011.79 1011.98 1012.84 1013.64 1014.36 1014.99 1015.48 1016.11
1015.52 1015.39 1015.53 1015.64 1016.02 1016.20 1015.57 1014.71 1014.00 1012.95 1011.78 1011.18 1009.74 1008.04 1006.18 1003.72 1002.86 1002.64 1002.58 1002.30 1002.17 1002.44 1002.16 1002.08 1002.14 1002.82 1002.87 1003.00 1003.80 1004.07 1004.71 1005.14 1005.57 1005.60 1005.64 1006.21 1007.26 1007.71 1008.87 1009.82 1010.52 1011.13 1011.36 1012.24 1013.12 1013.87 1014.51 1015.09 1015.72
1014.96 1015.20 1015.32 1015.49 1016.17 1016.21 1015.88 1014.90 1013.73 1013.40 1012.37 1011.60 1009.61 1007.67 1004.99 1002.98 1002.47 1002.38 1002.29 1001.78 1001.91 1001.39 1001.86 1002.08 1002.78 1001.56 1002.54 1002.70 1003.28 1004.13 1004.64 1004.83 1005.08 1005.43 1005.55 1006.10 1007.09 1007.86 1008.87 1009.57 1009.96 1010.26 1011.27 1011.98 1012.65 1013.27 1013.97 1014.56 1015.15
Wind_Speed
5 5 2 5 5 5 2 6 2 1 2 3 5 3 5 3 4 7 5 4 7 13 14 15 19 18 18 18 18 18 18 18 18 19 20 21 20 18 18 18 17 17 17 18 18 19 18 18 18
4 3 5 3 5 2 5 4 6 2 3 8 4 4 2 5 3 3 3 4 11 13 12 12 17 19 18 17 16 18 18 18 18 18 19 19 20 18 17 18 17 16 18 18 19 17 16 14 16
2 4 5 5 4 6 5 5 2 4 6 6 6 2 2 7 10 6 4 10 10 11 12 13 17 18 18 17 16 17 17 18 17 18 17 17 18 18 18 17 17 15 15 16 17 17 15 13 12
3 5 5 4 8 5 4 5 2 4 4 6 3 4 4 1 6 8 2 8 11 7 8 12 18 20 19 17 17 17 16 17 16 16 17 17 16 18 16 16 18 17 16 16 16 16 14 14 15
4 3 4 1 6 4 4 1 0 2 1 4 5 4 5 7 10 10 7 2 7 7 5 9 17 19 19 18 18 18 17 16 16 16 17 17 16 19 19 18 18 18 17 16 16 15 14 13 15
5 3 3 4 6 3 4 2 2 3 3 8 5 5 2 4 20 17 9 4 2 8 7 9 14 17 18 18 17 18 17 17 16 16 17 17 17 19 20 18 18 19 18 17 15 14 14 12 16
7 5 5 3 4 5 2 2 3 1 2 3 2 4 1 13 11 13 10 6 2 3 8 7 9 12 15 17 17 18 19 17 16 15 16 16 16 18 19 17 18 17 18 16 14 13 13 13 16
5 4 6 5 4 6 1 2 2 4 2 7 2 3 3 5 9 10 10 9 6 2 4 8 7 8 10 10 13 15 16 16 16 15 12 13 15 16 17 15 16 15 16 16 13 12 13 13 13
2 3 4 6 7 5 3 6 5 3 3 2 5 1 1 7 10 10 9 9 8 8 6 4 6 9 7 8 9 11 12 13 13 13 14 12 8 10 11 9 12 14 13 14 13 12 11 12 11
4 3 8 5 4 2 2 1 3 3 6 4 5 5 0 3 6 7 7 8 8 8 9 4 4 5 9 8 9 7 8 7 8 7 11 8 10 8 8 9 12 13 13 12 12 12 12 9 4
3 4 4 3 3 3 4 6 3 4 8 8 7 7 5 1 1 5 6 4 6 6 4 6 5 4 6 7 6 4 4 4 4 8 9 11 9 6 6 5 5 4 6 4 5 6 4 6 4
1 3 2 4 4 4 5 4 6 10 14 8 8 7 5 7 6 6 8 7 6 7 6 4 4 5 5 3 6 7 6 6 6 8 10 10 7 9 7 5 5 4 3 4 4 3 5 6 5
2 2 5 7 7 6 7 9 11 13 8 10 12 8 10 7 7 8 9 8 7 6 7 6 4 4 3 6 6 8 7 7 8 9 11 9 11 10 9 6 5 4 4 4 4 5 4 5 5
3 4 7 6 7 6 9 13 5 2 4 11 14 17 14 16 9 8 8 8 8 8 8 7 7 5 4 7 7 8 8 9 8 9 10 12 10 10 9 9 6 5 5 4 4 5 5 4 4
4 6 7 6 7 6 5 15 18 12 10 13 13 15 16 16 14 11 11 10 9 8 8 8 6 6 6 5 8 8 9 9 8 10 13 13 11 14 12 10 8 7 5 6 4 4 3 2 2
5 2 4 5 2 5 7 15 8 8 10 16 16 14 15 16 18 14 9 10 10 9 9 8 7 7 7 6 5 7 8 9 9 9 10 13 12 13 11 9 9 8 6 6 4 4 3 3 4
5 3 4 9 3 5 8 12 6 4 6 13 13 13 14 15 16 15 11 10 12 12 12 10 9 9 9 6 4 3 6 6 8 8 9 13 13 14 11 9 9 10 8 7 7 3 3 3 3
4 3 5 7 5 2 13 26 23 20 17 20 20 20 21 21 23 19 15 11 12 13 13 12 10 11 8 5 4 3 6 5 5 8 8 12 11 14 12 9 9 10 8 6 4 5 2 3 4
2 4 10 12 12 10 14 22 24 23 16 19 18 19 20 22 23 17 16 12 13 13 14 14 13 13 7 4 7 5 7 7 8 8 12 13 13 15 14 10 10 10 10 10 9 4 6 2 3
8 9 13 13 10 5 15 27 27 25 21 17 17 18 19 21 20 18 16 14 13 16 15 16 15 14 12 8 7 4 5 7 10 11 13 14 14 15 13 13 12 12 9 8 9 6 4 3 5
8 7 9 11 11 10 12 13 5 5 4 4 7 12 16 20 22 18 16 16 11 15 17 16 17 17 15 14 7 3 6 1 5 8 7 13 15 15 16 14 12 12 10 9 11 9 9 5 3
7 8 13 9 5 4 4 9 5 4 4 3 13 15 13 15 15 17 15 14 14 14 15 17 17 18 16 16 12 14 11 11 8 11 11 12 15 11 13 14 14 13 9 10 10 9 8 6 8
9 3 6 8 8 8 2 5 8 5 9 22 19 19 17 16 11 14 16 17 15 12 13 15 17 17 18 16 16 12 12 9 9 10 11 16 16 16 16 11 9 10 10 10 11 10 9 8 6
5 9 8 7 4 4 6 6 7 3 13 23 19 21 22 15 12 11 14 12 12 8 12 13 15 15 17 14 15 15 14 11 10 13 13 12 13 14 17 17 12 13 12 11 10 11 10 8 6
2 2 3 5 3 7 3 4 10 6 15 17 20 19 19 13 9 8 8 8 10 10 12 12 14 14 12 14 14 15 14 14 15 15 15 15 13 13 16 18 17 13 13 12 11 10 9 9 8
3 4 4 4 2 6 3 5 8 3 19 19 20 18 18 17 11 8 8 8 10 11 13 14 14 14 13 13 13 12 14 11 12 13 14 14 14 15 18 16 16 16 15 13 12 9 8 8 7
2 4 4 4 4 2 4 7 5 17 25 26 24 23 21 18 16 13 9 8 9 10 13 15 16 16 14 14 12 13 12 10 12 14 14 13 16 15 17 17 17 18 16 14 12 9 9 9 8
5 4 2 1 6 6 6 5 9 26 26 26 26 24 25 20 13 7 7 6 6 6 7 7 12 13 12 14 12 13 14 10 5 7 17 14 10 12 15 17 17 15 14 13 12 8 8 9 6
1 2 2 1 2 3 5 4 8 21 23 21 23 23 22 19 10 7 4 6 6 5 6 6 4 7 11 13 11 11 12 11 7 6 11 13 11 11 12 15 15 14 13 12 12 10 10 11 9
2 2 2 4 5 3 2 4 11 19 21 18 23 24 18 10 4 2 3 5 3 1 3 3 12 17 17 12 12 9 6 6 7 12 10 12 12 12 15 13 13 12 11 12 12 12 11 12 11
Wind_Direction
358 328 75 41 68 65 242 250 259 255 58 246 250 213 218 249 198 223 310 176 129 150 157 159 161 162 157 154 151 143 141 140 138 136 134 133 132 132 129 125 127 132 126 115 112 106 107 106 104
339 24 44 82 94 116 253 231 216 208 259 293 301 325 211 266 244 284 101 182 154 152 157 160 164 161 161 158 154 151 146 144 143 142 140 137 138 138 136 132 133 128 119 119 111 107 101 102 108
40 42 84 116 150 197 202 196 94 303 318 9 357 11 354 326 333 305 293 144 155 158 161 161 164 163 163 161 159 156 153 149 149 146 146 143 143 139 143 141 136 121 119 111 111 109 102 94 122
62 23 33 104 226 256 207 132 46 351 341 43 305 336 9 157 316 306 353 144 146 155 162 164 163 166 164 164 162 162 161 154 155 154 151 148 150 142 141 131 131 122 116 119 122 114 104 93 108
41 58 88 153 260 266 274 200 218 60 351 336 337 320 344 4 327 18 11 74 150 145 151 170 167 168 164 166 166 164 165 159 158 156 152 154 147 137 130 131 129 127 125 131 128 120 107 106 117
60 91 99 201 237 232 303 263 284 60 61 320 23 343 259 349 13 340 349 9 240 166 158 173 173 171 167 170 169 167 169 162 163 157 155 155 147 138 137 137 136 132 133 135 132 125 109 115 126
114 105 192 203 268 311 237 356 86 16 350 287 269 305 328 15 353 350 347 11 337 205 184 179 181 175 173 173 174 171 167 166 164 166 159 153 147 140 140 140 141 138 136 136 134 131 117 124 128
101 97 155 212 223 263 350 22 343 59 289 321 342 253 354 322 347 354 352 0 326 266 220 191 179 180 176 175 177 173 168 168 163 162 153 144 142 143 142 141 142 141 137 137 139 139 124 125 132
109 83 188 195 169 233 8 32 324 300 238 14 275 13 117 352 357 7 355 351 6 2 323 281 198 190 175 179 185 179 175 165 158 151 140 138 143 139 140 142 141 141 143 145 145 142 123 116 123
105 166 210 202 187 236 289 267 277 300 288 260 249 283 314 2 4 352 348 334 338 337 332 328 272 212 181 182 185 174 176 168 158 155 147 143 148 147 141 142 140 146 150 151 150 143 130 111 112
167 212 228 258 242 265 286 304 230 254 262 217 256 265 284 232 232 308 305 287 292 302 308 330 323 260 204 191 177 171 180 165 154 152 153 153 147 139 138 139 141 137 143 143 143 139 126 130 131
264 243 285 295 323 323 288 287 271 238 256 263 258 257 264 271 244 239 268 281 289 307 291 286 308 290 261 207 191 168 170 178 169 163 159 163 156 151 147 148 149 141 151 153 150 150 140 135 138
230 319 333 309 300 272 258 256 262 261 269 269 274 260 276 246 251 227 229 255 264 258 279 272 253 257 223 238 195 171 175 176 179 169 168 168 167 163 151 154 155 151 148 165 160 154 152 141 145
340 305 284 278 274 267 271 266 225 226 278 282 275 279 271 275 244 227 217 235 252 247 251 260 255 229 231 222 211 190 179 183 174 178 176 174 170 167 167 162 168 167 163 169 167 164 158 164 169
326 317 312 249 244 249 256 268 240 251 244 253 262 269 272 265 267 237 223 220 225 239 236 236 241 249 220 210 234 194 183 174 180 185 177 175 182 172 173 169 170 176 165 157 152 153 137 164 172
4 15 320 298 343 258 135 264 271 238 243 264 263 262 263 262 262 254 225 219 226 233 233 221 223 216 227 200 202 214 189 177 187 184 177 179 177 174 172 172 172 171 166 165 163 158 159 182 170
10 259 260 307 238 250 193 279 256 244 229 255 264 256 255 258 256 258 238 208 218 226 233 232 213 217 218 207 186 191 169 201 180 183 178 179 179 179 172 180 173 169 168 175 175 158 149 155 174
224 265 268 252 285 248 283 274 273 273 262 262 259 259 262 262 257 249 242 212 206 216 223 228 218 209 213 196 171 172 203 199 217 167 185 182 182 183 174 178 180 170 169 174 166 151 158 157 169
176 221 259 257 270 295 264 275 284 283 271 264 261 259 259 259 263 258 247 229 211 212 220 223 216 211 201 163 189 195 189 197 194 181 184 190 187 188 182 178 182 181 178 182 181 146 158 146 149
249 264 270 286 266 259 280 281 287 280 269 258 264 268 263 266 261 253 242 237 195 214 215 217 219 213 208 192 185 174 181 202 200 199 193 188 191 187 190 180 186 186 180 166 174 162 144 138 171
236 227 265 254 313 273 292 283 319 308 345 325 282 274 282 276 271 255 241 233 214 203 212 215 214 210 209 203 181 170 184 73 198 203 185 194 195 192 194 191 188 182 192 180 179 180 170 150 182
275 244 252 275 322 283 52 293 300 331 301 277 314 301 291 282 282 260 240 233 228 209 208 215 208 207 207 199 199 193 195 194 192 196 197 185 194 193 188 193 184 182 192 184 187 184 182 143 177
231 142 240 259 251 296 285 248 272 299 333 343 333 320 311 293 260 253 236 228 228 223 206 208 212 206 205 200 198 201 202 200 193 193 187 193 192 184 179 180 190 190 190 188 184 181 169 177 160
268 292 266 248 253 259 227 178 283 342 338 329 325 318 318 283 273 264 241 240 236 213 210 207 199 199 206 191 198 197 206 204 192 191 199 195 191 188 190 190 189 203 195 179 184 187 177 169 163
135 326 322 357 6 223 213 165 248 288 354 331 321 318 318 295 269 279 250 225 224 195 194 203 202 200 195 196 204 203 205 211 209 203 196 187 190 187 188 184 187 197 192 179 182 183 177 175 178
219 165 161 245 252 273 201 249 279 326 340 332 327 316 316 317 294 265 256 247 222 207 193 199 198 204 190 193 206 205 207 221 212 210 201 197 190 180 174 182 190 193 185 179 182 182 179 172 174
228 219 195 268 239 289 269 314 327 345 334 335 332 326 316 306 297 270 261 256 239 211 199 194 195 199 186 195 198 196 181 199 212 201 194 191 192 181 175 174 192 188 180 174 173 176 175 175 173
228 326 255 252 1 321 322 339 308 333 330 332 329 324 312 295 274 271 262 267 277 244 212 198 198 194 192 189 187 187 183 173 168 212 180 174 163 163 171 177 188 187 170 168 171 169 169 168 174
279 298 238 318 45 325 312 304 339 325 323 327 318 320 307 296 279 217 222 237 233 255 236 213 267 200 216 202 184 178 191 181 175 140 163 161 159 158 170 182 184 183 168 166 171 170 168 175 171
249 327 25 76 328 322 292 310 338 329 329 330 328 328 332 346 322 175 209 273 119 251 345 227 224 239 204 178 168 164 178 189 175 177 166 154 161 172 181 183 177 164 171 173 175 171 175 178 176